User: anonymous   Login
Location: Marcé
(47.5801°N, 0.3280°W)
Time: 18:30:29
(UTC+01:00)
Language:

Courier 1B Rocket - Orbit

View from above orbital plane
View from above orbital plane
View from above satellite
View from above satellite

Ground track
Ground track

The orbit data is extracted from the following two-line orbital elements,

1 00059U 60013B   21339.72930939  .00000105  00000-0  24203-4 0  9995
2 00059  28.2496 343.4519 0189326 107.3200 254.8148 13.52990783 18927
Epoch (UTC): 05 December 2021 17:30:12
Eccentricity: 0.0189326
inclination: 28.2496°
perigee height: 920 km
apogee height: 1202 km
right ascension of ascending node: 343.4519°
argument of perigee: 107.3200°
revolutions per day: 13.52990783
mean anomaly at epoch: 254.8148°
orbit number at epoch: 1892

The dashed part of the orbit path shows where the satellite is in the earth's shadow,  

DLR